リー彗星

292P/Li (1998)

English version
Home page
Updated on July 28, 2013

---------------------------------------------------------------------

・ プロフィール

符号 292P/1998 Y2
発見日 1998年12月26日
発見光度 16.2等
発見者 W.-d. Li (Lick Observatory)

・ 写真集

・ 軌道要素

Epoch 1998 Dec. 13.0 TT = JDT 2451160.5
T 1998 Dec. 17.81345 TT                                 MPC
q   2.5188493            (2000.0)            P               Q
n   0.06506106     Peri.  318.98354     +0.57360106     -0.70816247
a   6.1224039      Node    91.83125     +0.81696615     +0.45803199
e   0.5885849      Incl.   24.32420     +0.05956622     +0.53731984
P  15.1
From 149 observations 1998 Sept. 23-2013 July 26, mean residual 0".7.

・ 星図

・ 光度変化

        m1 = 10.0 + 5 logΔ + 10.0 log r

---------------------------------------------------------------------

軌道要素はM.P.E.C. 2013-O52に掲載されたものです。
星図は StellaNavigator Ver.2.0 for Windows (アストロアーツ 編著 / アスキー出版局刊) で作成したものです。
光度グラフはComet for Windowsで作成したものです。

---------------------------------------------------------------------

Copyright(C) Seiichi Yoshida (comet@aerith.net). All rights reserved.